EW0607 Weather Reports


Display with metric or nautical units.
time (UTC)temp
F
wind
direction
speed
MPH
gust
MPH
rain 1hr
in
rain 24hr
in
rain mn
in
humidity
%
barometer
mb
20260505090040 58 360 2.0 0.0 0.00 0.00 0.00 40 1002.7
20260505085514 58 360 2.0 0.0 0.00 0.00 0.00 40 1003.0
20260505085059 58 73 2.0 0.0 0.00 0.00 0.00 39 1003.1
20260505084550 59 71 1.0 0.0 0.00 0.00 0.00 38 1002.9
20260505084014 59 71 1.0 0.0 0.00 0.00 0.00 38 1002.8
20260505083606 59 111 1.0 0.0 0.00 0.00 0.00 38 1002.6
20260505083056 59 94 1.0 0.0 0.00 0.00 0.00 38 1002.7
20260505082528 59 360 1.0 0.0 0.00 0.00 0.00 38 1002.7
20260505082012 59 360 1.0 0.0 0.00 0.00 0.00 37 1002.8
20260505081559 59 360 1.0 0.0 0.00 0.00 0.00 37 1002.8
20260505081030 60 360 1.0 0.0 0.00 0.00 0.00 36 1002.8
20260505080506 60 360 1.0 0.0 0.00 0.00 0.00 36 1002.8
20260505080054 60 360 1.0 0.0 0.00 0.00 0.00 36 1002.8
20260505075533 60 105 1.0 0.0 0.00 0.00 0.00 36 1002.9
20260505075012 60 107 1.0 0.0 0.00 0.00 0.00 36 1002.9
20260505074554 61 109 1.0 0.0 0.00 0.00 0.00 36 1002.9
20260505074036 61 98 1.0 0.0 0.00 0.00 0.00 35 1002.9
20260505073512 61 108 1.0 0.0 0.00 0.00 0.00 35 1002.9
20260505073103 62 360 0.0 0.0 0.00 0.00 0.00 35 1002.9
20260505072538 62 110 0.0 0.0 0.00 0.00 0.00 35 1002.9
20260505072014 62 115 1.0 0.0 0.00 0.00 0.00 35 1002.8
20260505071559 62 107 1.0 0.0 0.00 0.00 0.00 34 1002.6
20260505071038 62 107 0.0 0.0 0.00 0.00 0.00 34 1002.8
20260505070517 63 113 0.0 0.0 0.00 0.00 0.00 33 1002.7
20260505070059 63 74 0.0 0.0 0.00 0.00 0.00 33 1002.6
20260505065537 63 244 0.0 0.0 0.00 0.00 0.00 33 1002.6
20260505065019 63 272 0.0 0.0 0.00 0.00 0.00 33 1002.6
20260505064504 63 200 0.0 0.0 0.00 0.00 0.00 33 1002.5
20260505064047 63 240 0.0 0.0 0.00 0.00 0.00 32 1002.6
20260505063530 63 267 0.0 0.0 0.00 0.00 0.00 32 1002.6
20260505063015 64 267 0.0 0.0 0.00 0.00 0.00 32 1002.6
20260505062558 64 360 0.0 0.0 0.00 0.00 0.00 31 1002.6
20260505062040 64 111 0.0 0.0 0.00 0.00 0.00 31 1002.5
20260505061517 64 247 0.0 0.0 0.00 0.00 0.00 31 1002.4
20260505061059 65 291 0.0 0.0 0.00 0.00 0.00 30 1002.3
20260505060544 65 246 0.0 0.0 0.00 0.00 0.00 30 1002.3
20260505060034 65 249 0.0 0.0 0.00 0.00 0.00 30 1002.3
20260505055511 65 244 0.0 0.0 0.00 0.00 0.00 30 1002.3
20260505055100 65 252 0.0 0.0 0.00 0.00 0.00 29 1002.3
20260505054545 65 167 0.0 0.0 0.00 0.00 0.00 29 1002.3
20260505054017 65 241 0.0 0.0 0.00 0.00 0.00 29 1002.3
20260505053501 65 260 0.0 0.0 0.00 0.00 0.00 29 1002.3
20260505053048 65 210 0.0 0.0 0.00 0.00 0.00 29 1002.3
20260505052530 66 238 0.0 0.0 0.00 0.00 0.00 29 1002.2
20260505052015 66 146 0.0 0.0 0.00 0.00 0.00 29 1002.1
20260505051601 66 201 0.0 0.0 0.00 0.00 0.00 28 1002.2
20260505051045 66 181 0.0 0.0 0.00 0.00 0.00 28 1002.2
20260505050531 66 206 0.0 0.0 0.00 0.00 0.00 28 1002.2
20260505041601 68 150 0.0 0.0 0.00 0.00 0.00 25 1002.0
20260505041046 68 217 1.0 0.0 0.00 0.00 0.00 25 1001.9
20260505040528 68 299 1.0 0.0 0.00 0.00 0.00 24 1001.9
20260505040015 68 322 1.0 0.0 0.00 0.00 0.00 24 1001.8
20260505035554 69 216 1.0 0.0 0.00 0.00 0.00 24 1002.0
20260505035036 69 57 1.0 0.0 0.00 0.00 0.00 24 1001.8
20260505034515 69 360 1.0 0.0 0.00 0.00 0.00 23 1001.7
20260505034101 69 360 1.0 0.0 0.00 0.00 0.00 22 1001.4
20260505033541 69 360 1.0 0.0 0.00 0.00 0.00 22 1001.3
20260505033031 69 360 1.0 0.0 0.00 0.00 0.00 21 1001.3
20260505032504 70 360 1.0 0.0 0.00 0.00 0.00 21 1001.2
20260505032051 70 360 1.0 0.0 0.00 0.00 0.00 21 1001.0
20260505031546 70 360 1.0 0.0 0.00 0.00 0.00 21 1001.0
20260505031015 70 360 1.0 0.0 0.00 0.00 0.00 21 1000.9
20260505030601 70 360 1.0 0.0 0.00 0.00 0.00 20 1000.9
20260505030047 71 360 1.0 0.0 0.00 0.00 0.00 20 1000.9
20260505025525 71 360 1.0 0.0 0.00 0.00 0.00 19 1001.0
20260505025004 71 360 1.0 0.0 0.00 0.00 0.00 19 1000.9
20260505024551 71 360 1.0 0.0 0.00 0.00 0.00 18 1000.9
20260505024033 71 360 2.0 0.0 0.00 0.00 0.00 18 1000.8
20260505023511 72 360 2.0 0.0 0.00 0.00 0.00 18 1000.8
20260505023057 72 360 2.0 0.0 0.00 0.00 0.00 18 1000.7
20260505022540 72 360 2.0 0.0 0.00 0.00 0.00 18 1000.6
20260505022019 73 360 2.0 0.0 0.00 0.00 0.00 18 1000.5
20260505021602 73 360 1.0 0.0 0.00 0.00 0.00 17 1000.4
20260505021041 73 360 2.0 0.0 0.00 0.00 0.00 18 1000.4
20260505020522 73 360 2.0 0.0 0.00 0.00 0.00 17 1000.4
20260505020015 74 360 2.0 0.0 0.00 0.00 0.00 17 1000.4
20260505015553 74 360 2.0 0.0 0.00 0.00 0.00 17 1000.4
20260505015033 74 360 2.0 0.0 0.00 0.00 0.00 17 1000.4
20260505014515 74 360 2.0 0.0 0.00 0.00 0.00 16 1000.5
20260505014100 75 360 2.0 0.0 0.00 0.00 0.00 17 1000.4
20260505013541 75 360 2.0 0.0 0.00 0.00 0.00 15 1000.4
20260505013023 75 360 2.0 0.0 0.00 0.00 0.00 14 1000.2
20260505012507 76 360 2.0 0.0 0.00 0.00 0.00 14 1000.2
20260505012051 76 360 2.0 0.0 0.00 0.00 0.00 14 1000.1
20260505011530 76 360 2.0 0.0 0.00 0.00 0.00 14 1000.1
20260505011010 76 360 2.0 0.0 0.00 0.00 0.00 14 1000.2
20260505010553 76 360 2.0 0.0 0.00 0.00 0.00 13 1000.3
20260505010037 76 360 2.0 0.0 0.00 0.00 0.00 13 1000.2
20260505005520 77 360 2.0 0.0 0.00 0.00 0.00 14 1000.2
20260505005002 77 360 2.0 0.0 0.00 0.00 0.00 14 1000.2
20260505004549 77 360 2.0 0.0 0.00 0.00 0.00 13 1000.2
20260505004025 77 360 2.0 0.0 0.00 0.00 0.00 14 1000.2
20260505003503 78 360 2.0 0.0 0.00 0.00 0.00 15 1000.3
20260505003046 78 360 2.0 0.0 0.00 0.00 0.00 15 1000.3
20260505002528 78 360 2.0 0.0 0.00 0.00 0.00 15 1000.3
20260505002011 78 360 2.0 0.0 0.00 0.00 0.00 16 1000.2
20260505001559 78 360 2.0 0.0 0.00 0.00 0.00 16 1000.4
20260505001038 78 360 2.0 0.0 0.00 0.00 0.00 15 1000.4
20260505000517 79 360 2.0 0.0 0.00 0.00 0.00 14 1000.3
20260505000059 78 360 2.0 0.0 0.00 0.00 0.00 15 1000.2
20260504235542 79 360 2.0 0.0 0.00 0.00 0.00 15 1000.2
20260504235017 79 360 3.0 0.0 0.00 0.00 0.00 15 1000.2
20260504234501 78 360 3.0 0.0 0.00 0.00 0.00 14 1000.2
20260504234051 79 360 3.0 0.0 0.00 0.00 0.00 14 1000.3
20260504233534 78 360 2.0 0.0 0.00 0.00 0.00 14 1000.3
20260504233012 78 360 2.0 0.0 0.00 0.00 0.00 14 1000.3
20260504232555 78 360 2.0 0.0 0.00 0.00 0.00 13 1000.4
20260504232034 78 360 2.0 0.0 0.00 0.00 0.00 13 1000.3
20260504231519 78 360 2.0 0.0 0.00 0.00 0.00 14 1000.4
20260504231102 79 360 2.0 0.0 0.00 0.00 0.00 13 1000.3
20260504230544 78 360 2.0 0.0 0.00 0.00 0.00 14 1000.5
20260504230020 78 360 2.0 0.0 0.00 0.00 0.00 14 1000.5
20260504225502 78 360 3.0 0.0 0.00 0.00 0.00 15 1000.2
20260504225050 79 360 3.0 0.0 0.00 0.00 0.00 14 1000.3
20260504224537 79 360 2.0 0.0 0.00 0.00 0.00 14 1000.3
20260504224014 79 360 2.0 0.0 0.00 0.00 0.00 14 1000.3
20260504223601 79 360 3.0 0.0 0.00 0.00 0.00 12 1000.3
20260504223037 79 360 2.0 0.0 0.00 0.00 0.00 11 1000.3
20260504222516 80 360 2.0 0.0 0.00 0.00 0.00 11 1000.3
20260504222057 80 360 3.0 0.0 0.00 0.00 0.00 11 1000.3
20260504221539 80 360 3.0 0.0 0.00 0.00 0.00 11 1000.4
20260504221016 80 360 3.0 0.0 0.00 0.00 0.00 12 1000.4
20260504220558 80 360 2.0 0.0 0.00 0.00 0.00 12 1000.4
20260504220037 80 360 2.0 0.0 0.00 0.00 0.00 12 1000.5
20260504215516 80 15 2.0 0.0 0.00 0.00 0.00 12 1000.5
20260504215058 80 42 2.0 0.0 0.00 0.00 0.00 12 1000.5
20260504214537 80 220 3.0 0.0 0.00 0.00 0.00 13 1000.6
20260504214019 80 115 3.0 0.0 0.00 0.00 0.00 12 1000.6
20260504213501 80 80 2.0 0.0 0.00 0.00 0.00 13 1000.7
20260504213041 81 252 2.0 0.0 0.00 0.00 0.00 12 1000.7
20260504212526 80 26 3.0 0.0 0.00 0.00 0.00 11 1000.7
20260504212011 79 338 2.0 0.0 0.00 0.00 0.00 11 1001.1
20260504211554 79 259 3.0 0.0 0.00 0.00 0.00 11 1001.1
20260504211034 79 130 3.0 0.0 0.00 0.00 0.00 12 1001.1
20260504210515 79 86 3.0 0.0 0.00 0.00 0.00 12 1001.2
20260504210107 79 113 2.0 0.0 0.00 0.00 0.00 12 1001.2
20260504205542 81 107 2.0 0.0 0.00 0.00 0.00 13 1001.1
20260504205022 80 351 2.0 0.0 0.00 0.00 0.00 14 1001.1
20260504204510 79 113 2.0 0.0 0.00 0.00 0.00 14 1001.2
20260504204050 79 60 2.0 0.0 0.00 0.00 0.00 15 1001.2
20260504203535 79 288 2.0 0.0 0.00 0.00 0.00 14 1001.3
20260504203017 78 69 3.0 0.0 0.00 0.00 0.00 14 1001.4
20260504202600 79 75 2.0 0.0 0.00 0.00 0.00 14 1001.4
20260504202039 79 69 2.0 0.0 0.00 0.00 0.00 16 1001.3
20260504201519 79 53 2.0 0.0 0.00 0.00 0.00 16 1001.4
20260504201101 79 115 2.0 0.0 0.00 0.00 0.00 16 1001.4
20260504200542 78 207 2.0 0.0 0.00 0.00 0.00 16 1001.7
20260504200023 78 116 2.0 0.0 0.00 0.00 0.00 15 1001.6
20260504195503 77 132 2.0 0.0 0.00 0.00 0.00 16 1001.6
20260504195052 78 360 2.0 0.0 0.00 0.00 0.00 16 1001.7
20260504194530 78 344 2.0 0.0 0.00 0.00 0.00 14 1001.7
20260504194014 78 274 2.0 0.0 0.00 0.00 0.00 17 1001.7
20260504193558 77 257 2.0 0.0 0.00 0.00 0.00 19 1001.9
20260504193048 77 53 2.0 0.0 0.00 0.00 0.00 18 1001.9
20260504192535 77 355 2.0 0.0 0.00 0.00 0.00 20 1001.9
20260504192017 77 308 2.0 0.0 0.00 0.00 0.00 20 1002.0
20260504191503 77 101 2.0 0.0 0.00 0.00 0.00 22 1002.2
20260504191045 76 59 2.0 0.0 0.00 0.00 0.00 22 1002.2
20260504190523 76 264 2.0 0.0 0.00 0.00 0.00 22 1002.3
20260504190105 76 215 2.0 0.0 0.00 0.00 0.00 22 1002.4
20260504185544 75 290 3.0 0.0 0.00 0.00 0.00 21 1002.4
20260504185025 75 24 3.0 0.0 0.00 0.00 0.00 19 1002.4
20260504184502 74 315 3.0 0.0 0.00 0.00 0.00 22 1002.6
20260504184045 73 174 2.0 0.0 0.00 0.00 0.00 23 1002.8
20260504183527 74 180 2.0 0.0 0.00 0.00 0.00 24 1002.7
20260504183008 74 46 2.0 0.0 0.00 0.00 0.00 24 1002.8
20260504182549 73 351 2.0 0.0 0.00 0.00 0.00 25 1003.0
20260504182034 73 15 2.0 0.0 0.00 0.00 0.00 25 1003.0
20260504181520 73 32 2.0 0.0 0.00 0.00 0.00 24 1003.0
20260504181101 74 351 2.0 0.0 0.00 0.00 0.00 25 1003.0
20260504180541 73 314 2.0 0.0 0.00 0.00 0.00 23 1002.9
20260504180021 73 46 2.0 0.0 0.00 0.00 0.00 24 1003.0
20260504175502 73 46 2.0 0.0 0.00 0.00 0.00 25 1002.7
20260504175052 73 275 2.0 0.0 0.00 0.00 0.00 25 1002.9
20260504174534 73 143 2.0 0.0 0.00 0.00 0.00 25 1002.7
20260504174010 73 265 2.0 0.0 0.00 0.00 0.00 24 1002.7
20260504173551 73 326 2.0 0.0 0.00 0.00 0.00 25 1002.6
20260504173027 72 106 2.0 0.0 0.00 0.00 0.00 26 1002.5
20260504172508 72 78 2.0 0.0 0.00 0.00 0.00 27 1002.4
20260504172054 72 311 2.0 0.0 0.00 0.00 0.00 28 1002.5
20260504171535 71 25 2.0 0.0 0.00 0.00 0.00 30 1002.4
20260504171014 71 83 2.0 0.0 0.00 0.00 0.00 30 1002.4
20260504170558 70 226 2.0 0.0 0.00 0.00 0.00 31 1002.7
20260504151039 63 360 1.0 0.0 0.00 0.00 0.00 40 1002.8
20260504150523 63 360 1.0 0.0 0.00 0.00 0.00 40 1002.8
20260504141059 62 360 1.0 0.0 0.00 0.00 0.00 40 1001.9
20260504140540 62 360 1.0 0.0 0.00 0.00 0.00 40 1002.0
20260504130527 62 360 0.0 0.0 0.00 0.00 0.00 39 1001.3
20260504110541 66 360 0.0 0.0 0.00 0.00 0.00 31 1000.3
20260504100544 69 360 0.0 0.0 0.00 0.00 0.00 27 999.8